Weather History for Asuncion, Paraguay

Change the Weather History Date:

Sunday, October 7, 2012

  Actual Average Record
Temperature  
Mean Temperature 88 °F -  
Max Temperature 95 °F 85 °F 105 °F (2002)
Min Temperature 80 °F 66 °F 57 °F (1996)
Cooling Degree Days 22    
Growing Degree Days 38 (Base 50)    
Moisture  
Dew Point 68 °F    
Average Humidity 51    
Maximum Humidity 61    
Minimum Humidity 32    
Precipitation  
Precipitation 0.00 in 0.16 in - ()
Sea Level Pressure  
Sea Level Pressure 29.79 in    
Wind  
Wind Speed 10 mph ()    
Max Wind Speed 16 mph    
Max Gust Speed 23 mph    
Visibility 10.1 miles    
Events      
Averages and records for this station are not official NWS values.
T = Trace of Precipitation, MM = Missing Value Source: Averaged Metar Reports

Daily Weather History Graph

Daily Weather History Graph

Search for Another Location

Airport:

Trip Planner

Search our weather history database for the weather conditions in past years. The results will help you decide how hot, cold, wet, or windy it might be!

Date:

Astronomy

Oct. 07, 2012 Rise Set
Actual Time 6:23 AM PYST 6:52 PM PYST
Civil Twilight 6:00 AM PYST 7:15 PM PYST
Nautical Twilight 5:33 AM PYST 7:42 PM PYST
Astronomical Twilight 5:05 AM PYST 8:10 PM PYST
Moon 1:32 AM PYST (10/7) 11:32 AM PYST (10/7)
Length of Visible Light 13h 15m
Length of Day
12h 29m
Waning Gibbous, 57% of the Moon is Illuminated
Oct 7
Waning Gibbous
Oct 8
Last Quarter
Oct 15
New
Oct 22
First Quarter
Oct 29
Full

Hourly Weather History & Observations

Time (PYST) Temp. Heat Index Dew Point Humidity Pressure Visibility Wind Dir Wind Speed Gust Speed Precip Events Conditions
1:00 AM 84.2 °F 85.6 °F 64.4 °F 51% 29.74 in - NE 9.2 mph - N/A   Clear
2:00 AM 82.4 °F 84.6 °F 66.2 °F 58% 29.74 in - NE 9.2 mph - N/A   Clear
3:00 AM 82.4 °F 84.6 °F 66.2 °F 58% 29.74 in 6.2 mi NE 9.2 mph - N/A   Scattered Clouds
4:00 AM 82.4 °F 84.6 °F 66.2 °F 58% 29.74 in - NE 9.2 mph - N/A   Clear
5:00 AM 82.4 °F 84.6 °F 66.2 °F 58% 29.77 in - NE 9.2 mph - N/A   Clear
6:00 AM 81 °F - 66 °F 52% 29.79 in 12 mi NNE 9.2 mph - -   Clear
6:00 AM 80.6 °F 82.3 °F 64.4 °F 58% 29.77 in - NE 9.2 mph - N/A   Clear
7:00 AM 80.6 °F 82.7 °F 66.2 °F 61% 29.80 in - NNE 9.2 mph - N/A   Clear
8:00 AM 82.4 °F 84.6 °F 66.2 °F 58% 29.83 in - NNE 13.8 mph - N/A   Clear
8:30 AM 84.2 °F 87.3 °F 68.0 °F 58% 29.83 in - North 15.0 mph - N/A   Clear
9:00 AM 86.0 °F 88.2 °F 66.2 °F 51% 29.83 in - NNE 13.8 mph - N/A   Clear
9:30 AM 86.0 °F 88.2 °F 66.2 °F 51% 29.83 in - NNE 16.1 mph - N/A   Clear
10:00 AM 86.0 °F 90.4 °F 69.8 °F 58% 29.83 in - North 16.1 mph - N/A   Clear
11:00 AM 89.6 °F 93.4 °F 68.0 °F 49% 29.83 in - North 11.5 mph 23.0 mph N/A   Clear
12:00 PM 89.6 °F 93.4 °F 68.0 °F 49% 29.83 in - North 16.1 mph - N/A   Clear
1:00 PM 91.4 °F 96.8 °F 69.8 °F 49% 29.80 in 6.2 mi North 16.1 mph - N/A   Mostly Cloudy
2:00 PM 95.0 °F 99.5 °F 68.0 °F 41% 29.80 in - North 13.8 mph - N/A   Clear
3:00 PM 95 °F - 68 °F 32% 29.78 in 12 mi North 16.1 mph - -   Partly Cloudy
3:00 PM 95.0 °F 99.5 °F 68.0 °F 41% 29.77 in - North 16.1 mph - N/A   Clear
4:00 PM 95.0 °F 99.5 °F 68.0 °F 41% 29.77 in - North 13.8 mph - N/A   Clear
5:00 PM 95.0 °F 99.5 °F 68.0 °F 41% 29.74 in - North 11.5 mph 23.0 mph N/A   Clear
6:00 PM 95.0 °F 99.5 °F 68.0 °F 41% 29.74 in - North 11.5 mph 23.0 mph N/A   Clear
7:00 PM 93.2 °F 98.8 °F 69.8 °F 46% 29.74 in - NNE 11.5 mph - N/A   Clear
8:00 PM 89.6 °F 96.2 °F 71.6 °F 55% 29.77 in - NE 6.9 mph - N/A   Clear
9:00 PM 90 °F - 71 °F 44% 29.79 in 12 mi NNE 8.1 mph - -   Mostly Cloudy
9:00 PM 89.6 °F 96.2 °F 71.6 °F 55% 29.77 in - NNE 8.1 mph - N/A   Clear
10:00 PM 86.0 °F 90.4 °F 69.8 °F 58% 29.80 in - NNE 6.9 mph - N/A   Clear
11:00 PM 84.2 °F 87.3 °F 68.0 °F 58% 29.80 in - NNE 9.2 mph - N/A   Clear
12:00 AM 83 °F - 66 °F 47% 29.83 in 12 mi NNE 9.2 mph - -   Clear
12:00 AM 82.4 °F 84.6 °F 66.2 °F 58% 29.80 in - NNE 9.2 mph - N/A   Clear